User: anonymous   Login
Location: Innerarity Island Observatory
(30.3139°N, 87.4867°W)
Time: 07:13:36
(UTC-05:00)
Language:

FO-29 - Orbit

View from above orbital plane
View from above orbital plane
View from above satellite
View from above satellite

Ground track
Ground track

The orbit data is extracted from the following two-line orbital elements,

1 24278U 96046B   17233.16188826  .00000002  00000-0  36323-4 0  9997
2 24278  98.5534 107.7490 0350564 168.8808 192.0340 13.53077678 37667
Epoch (UTC): 21 August 2017 03:53:07
Eccentricity: 0.0350564
inclination: 98.5534°
perigee height: 800 km
apogee height: 1322 km
right ascension of ascending node: 107.7490°
argument of perigee: 168.8808°
revolutions per day: 13.53077678
mean anomaly at epoch: 192.0340°
orbit number at epoch: 3766

The dashed part of the orbit path shows where the satellite is in the earth's shadow,  

DLR